FENGYUN 1C DEB, 38817

Orbit data source: Space-Track

FENGYUN 1C DEB, 38817 is space debris in SSO originally from a launch on Mon, 10 May 1999 UTC launched from the Taiyaun Space Center, China (TSC). Fengyun 1C debris stems from the Chinese weather satellite Fengyun-1C, which was intentionally destroyed by a Chinese anti-satellite missile in 2007. This event dramatically increased the amount of space debris, with thousands of trackable fragments posing hazards to satellites and human spaceflight. The Fengyun 1C debris cloud has become a focal point in discussions about space sustainability and the need for international regulations to prevent the creation of new debris.

Loading next visibility...
Identifier
38817, 1999-025EVH
Orbit
SSO
Country
Flag of CNCN / PRC
Related business
Manufacturer
Unknown
Mission
Spacecraft
Bus & Motor
Unknown
Mass
Unknown
Launch date (UTC)
1999-05-10 (27 years ago)
Launch vehicle
Unknown
Launch site
Taiyaun Space Center, China (TSC)
Object type
Payload
Rocket body
Debris
Shape & HBR
Unknown shape, 0.1 m
Radar Cross Section
Small (<0.1 m²)

Expand to show TLE details & history
Last TLE update: 2 days ago

TLE from 2 days ago
0 FENGYUN 1C DEB
1 38817U 99025EVH 26206.35885623  .00001337  00000-0  14406-2 0  9999
2 38817  98.5830  54.0347 0287684 178.2736 181.9470 13.58373049688830
Epoch: 2026-07-25T08:36Z
TLE epoch observation values (Epoch: 2026-07-25T08:36:45.178Z)
Latitude
0.00004°
Longitude
-18.22582°
Altitude
1,257.825 km
Speed
7.122 km/s
True Right ascension
03h 36m 08s
True Declination
0° 00' 00"
Sunlit
Object was in daylight at epoch
Visualization orbit readout
Latitude
Unknown
Longitude
Unknown
Altitude
Unknown
Speed
Unknown
Apparent Right ascension
Unknown
Apparent Declination
Unknown
Sunlit
N/A
Visualization observer readout
Local Sidereal Time
05:06:34
Azimuth
Unknown
Elevation
Unknown
Doppler factor
Unknown
Orbital elements
Apogee altitude
1,252.218 km
Perigee altitude
825.468 km
Semi-major axis
7,416.98 km
Eccentricity
0.02877
Inclination
98.583°
RAAN
54.0347°
Arg. of periapsis
178.2736°
True anomaly
181.83889°
Mean anomaly
181.947°
Eccentric anomaly
181.89256°
Mean motion
3.39784 °/min
Orbital period
105.95 mins
BSTAR
0.0014406
Loading maneuver chart data...
Computing Atmospheric mass density...

Documentation

Showing up to 5 results
|